This is the latest recevied weather packets stored in our database for station/object kj4yre. If no packets are shown the sender has not sent any weather packets the latest 10 day(s).
| Time | Temp. | Humidity | Pressure | Rain* | Wind** | Luminosity | Snow |
|---|---|---|---|---|---|---|---|
| 1777843335 | 19.44° C | 32% | 1016.5 hPa | 0 mm | - | - | - |
| 1777843034 | 18.89° C | 34% | 1016.5 hPa | 0 mm | - | - | - |
| 1777841836 | 19.44° C | 32% | 1016.3 hPa | 0 mm | - | - | - |
| 1777841236 | 19.44° C | 33% | 1016.4 hPa | 0 mm | - | - | - |
| 1777839137 | 18.33° C | 32% | 1016.7 hPa | 0 mm | - | - | - |
| 1777838236 | 17.78° C | 33% | 1016.7 hPa | 0 mm | - | - | - |
| 1777837937 | 18.33° C | 33% | 1016.8 hPa | 0 mm | - | - | - |
| 1777835236 | 18.33° C | 36% | 1017.6 hPa | 0 mm | - | - | - |
| 1777833736 | 17.22° C | 34% | 1017.9 hPa | 0 mm | - | - | - |
| 1777833435 | 17.78° C | 35% | 1017.9 hPa | 0 mm | - | - | - |
| 1777833136 | 17.22° C | 35% | 1017.8 hPa | 0 mm | - | - | - |
| 1777832835 | 16.67° C | 34% | 1017.8 hPa | 0 mm | - | - | - |
| 1777831936 | 16.67° C | 34% | 1018 hPa | 0 mm | - | - | - |
| 1777831635 | 17.22° C | 38% | 1018 hPa | 0 mm | - | - | - |
| 1777829235 | 16.67° C | 37% | 1018.2 hPa | 0 mm | - | - | - |
| 1777826536 | 16.11° C | 38% | 1018.8 hPa | 0 mm | - | - | - |
| 1777825335 | 15.56° C | 42% | 1019 hPa | 0 mm | - | - | - |
| 1777824135 | 14.44° C | 40% | 1019.2 hPa | 0 mm | - | - | - |
| 1777823236 | 13.89° C | 43% | 1019.1 hPa | 0 mm | - | - | - |
| 1777822335 | 14.44° C | 42% | 1019.2 hPa | 0 mm | - | - | - |
| 1777821737 | 13.89° C | 41% | 1019.2 hPa | 0 mm | - | - | - |
| 1777821436 | 13.89° C | 43% | 1019.3 hPa | 0 mm | - | - | - |
| 1777820836 | 13.89° C | 43% | 1019.2 hPa | 0 mm | - | - | - |
| 1777819935 | 12.78° C | 40% | 1019.2 hPa | 0 mm | - | - | - |
| 1777818737 | 12.22° C | 43% | 1019.1 hPa | 0 mm | - | - | - |
* Rain latest hour (hover to see other rain measurements)
** Current wind speed in m/s (hover to see current wind gust speed)